CZ-6A DEB, 54328

Orbit data source: Space-Track

CZ-6A DEB, 54328 is space debris in SSO originally from a launch on Fri, 11 Nov 2022 UTC launched from the Taiyaun Space Center, China (TSC). Debris objects in space refer to the collection of defunct objects orbiting the Earth. Examples of debris include non-operational satellites, rocket bodies, and fragments generated from explosions, collisions, or faulty payload assembly.

Loading next visibility...
Identifier
54328, 2022-151BX
Orbit
SSO
Country
Flag of CNCN / PRC
Related business
Manufacturer
SAST
Mission
Spacecraft
Bus & Motor
Unknown
Mass
Unknown
Launch date (UTC)
2022-11-11 (3 years ago)
Launch vehicle
Unknown
Launch site
Taiyaun Space Center, China (TSC)
Object type
Payload
Rocket body
Debris
Shape & HBR
Unknown shape, 0.1 m
Radar Cross Section
Small (<0.1 m²)

Expand to show TLE details & history
Last TLE update: 17 hours ago

TLE from 17 hours ago
0 CZ-6A DEB
1 54328U 22151BX  26129.85321455  .00080033  00000-0  27374-2 0  9995
2 54328  98.6241 240.0660 0036342 249.8828 109.8496 15.29306125114930
Epoch: 2026-05-09T20:28Z
TLE epoch observation values (Epoch: 2026-05-09T20:28:37.737Z)
Latitude
-0.00006°
Longitude
65.24408°
Altitude
489.493 km
Speed
7.616 km/s
True Right ascension
16h 00m 15s
True Declination
0° 00' 00"
Sunlit
Object was in full shadow at epoch
Visualization orbit readout
Latitude
Unknown
Longitude
Unknown
Altitude
Unknown
Speed
Unknown
Apparent Right ascension
Unknown
Apparent Declination
Unknown
Sunlit
N/A
Visualization observer readout
Local Sidereal Time
21:25:01
Azimuth
Unknown
Elevation
Unknown
Doppler factor
Unknown
Orbital elements
Apogee altitude
499.801 km
Perigee altitude
449.99 km
Semi-major axis
6,853.032 km
Eccentricity
0.00363
Inclination
98.6241°
RAAN
240.066°
Arg. of periapsis
249.8828°
True anomaly
110.2407°
Mean anomaly
109.8496°
Eccentric anomaly
110.04521°
Mean motion
3.82577 °/min
Orbital period
94.1 mins
BSTAR
0.0027374
Loading maneuver chart data...
Computing Atmospheric mass density...
Loading historical data...
Loading historical data...
Loading historical data...
Loading historical data...
Loading historical data...
Loading historical data...
Loading historical data...

Documentation

Showing up to 5 results
|